1504774800.2,59935,15.63,73400.8,5.23,-34.25,-36.43,0,*78
1504774801.45,59936,15.63,73400.8,5.23,-31.11,-32.85,0,*77
1504774802.68,59937,15.63,73400.0,5.25,-30.61,-32.23,0,*7A
1504774803.91,59938,15.63,73400.8,5.25,-30.77,-32.39,0,*79
1504774805.13,59939,15.63,73402.5,5.31,-29.79,-31.17,0,*74
1504774806.38,59940,15.63,73404.8,5.33,-28.79,-30.05,0,*7B
1504774807.6,59941,15.63,73400.3,5.37,-29.45,-30.67,0,*74
1504774808.82,59942,15.63,73398.0,5.41,-29.79,-30.95,0,*74
1504774810.02,59943,15.63,73400.0,5.41,-31.17,-32.51,0,*7E
1504774811.24,59944,15.63,73400.8,5.41,-30.95,-32.35,0,*70
1504774812.47,59945,15.63,73406.3,5.41,-32.39,-33.77,0,*72
1504774813.68,59946,15.63,73402.3,5.41,-32.23,-33.61,0,*7D
1504774814.93,59947,15.63,73400.3,5.41,-31.51,-32.75,0,*7E
1504774816.15,59948,15.63,73400.0,5.41,-32.57,-33.77,0,*77
1504774817.38,59949,15.63,73398.5,5.41,-32.85,-34.07,0,*79
1504774818.57,59950,15.63,73398.0,5.41,-32.91,-34.07,0,*74
1504774819.79,59951,15.56,73398.0,5.41,-32.57,-33.77,0,*7F
1504774820.98,59952,15.63,73400.8,5.37,-33.55,-34.41,0,*7C
1504774822.2,59953,15.63,73410.0,5.37,-34.25,-35.23,0,*78
1504774823.42,59954,15.63,73406.5,5.37,-32.29,-33.55,0,*72
1504774824.68,59955,15.63,73408.3,5.35,-31.95,-33.21,0,*76
1504774825.91,59956,15.63,73414.5,5.35,-32.01,-33.37,0,*7C
1504774827.17,59957,15.56,73408.5,5.37,-31.51,-32.85,0,*71
1504774828.36,59958,15.63,73412.3,5.37,-31.67,-32.91,0,*7E
1504774829.56,59959,15.63,73414.0,5.41,-31.17,-32.39,0,*7B
1504774830.79,59960,15.63,73408.5,5.37,-32.57,-33.89,0,*7D
1504774832.04,59961,15.56,73404.3,5.37,-32.75,-33.89,0,*7C
1504774833.26,59962,15.63,73400.0,5.37,-33.15,-34.31,0,*7C
1504774834.51,59963,15.63,73400.0,5.37,-32.63,-34.01,0,*7E
1504774835.76,59964,15.63,73396.5,5.37,-32.75,-33.73,0,*7C
1504774837.05,59965,15.63,73388.3,5.35,-31.85,-32.79,0,*78
1504774838.28,59966,15.63,73390.5,5.37,-30.11,-31.23,0,*79
1504774839.48,59967,15.56,73384.3,5.41,-29.95,-31.17,0,*7A
1504774840.68,59968,15.63,73392.0,5.41,-30.83,-32.01,0,*7E
1504774841.91,59969,15.63,73384.3,5.41,-31.51,-32.69,0,*7F
1504774843.11,59970,15.56,73374.8,5.41,-31.29,-32.51,0,*73
1504774844.31,59971,15.63,73370.3,5.41,-32.39,-33.67,0,*74
1504774845.5,59972,15.63,73370.5,5.41,-33.95,-35.17,0,*71
1504774846.72,59973,15.63,73370.8,5.41,-32.75,-34.25,0,*7F
1504774847.92,59974,15.63,73370.5,5.41,-32.39,-33.83,0,*7B
1504774849.13,59975,15.63,73370.0,5.41,-33.09,-34.41,0,*71
1504774850.38,59976,15.63,73368.5,5.41,-31.91,-33.31,0,*71
1504774851.6,59977,15.63,73374.5,5.37,-30.51,-31.79,0,*72
1504774852.83,59978,15.63,73372.8,5.41,-28.91,-30.23,0,*77
1504774854.08,59979,15.63,73370.5,5.43,-28.97,-30.55,0,*73
1504774855.33,59980,15.63,73376.5,5.43,-29.17,-31.29,0,*76
1504774856.59,59981,15.63,73376.5,5.43,-26.65,-30.51,0,*73
1504774857.78,59982,15.56,73374.8,5.41,-25.35,-29.57,0,*7A
1504774859.05,59983,15.63,73380.3,5.43,-23.85,-28.79,0,*79
1504774860.3,59984,15.63,73384.0,5.43,-22.21,-27.51,0,*74
1504774861.52,59985,15.56,73384.0,5.43,-22.07,-27.07,0,*72
1504774862.74,59986,15.63,73388.0,5.43,-22.11,-26.65,0,*73
1504774863.97,59987,15.63,73392.3,5.45,-22.17,-27.03,0,*73
1504774865.21,59988,15.63,73392.8,5.49,-23.03,-28.75,0,*7A
1504774866.44,59989,15.63,73394.0,5.45,-23.43,-30.01,0,*79
1504774867.64,59990,15.63,73392.0,5.49,-22.93,-29.83,0,*73
1504774868.86,59991,15.63,73394.5,5.45,-23.03,-30.11,0,*75
1504774870.11,59992,15.63,73392.3,5.49,-23.29,-30.01,0,*73
1504774871.32,59993,15.63,73392.0,5.49,-22.97,-29.13,0,*7D
1504774872.57,59994,15.63,73392.5,5.53,-23.49,-29.01,0,*70
1504774873.79,59995,15.63,73398.8,5.53,-25.13,-30.55,0,*71
1504774875.04,59996,15.63,73396.8,5.57,-25.29,-30.33,0,*7F
1504774876.28,59997,15.63,73398.5,5.59,-25.45,-30.51,0,*7E
1504774877.53,59998,15.63,73396.5,5.61,-25.71,-30.27,0,*7C
1504774878.74,59999,15.56,73392.8,5.63,-25.03,-29.79,0,*79
1504774879.97,60000,15.63,73398.3,5.63,-24.25,-29.23,0,*70
1504774881.21,60001,15.63,73398.5,5.63,-23.69,-27.83,0,*7A
1504774882.4,60002,15.63,73398.0,5.67,-23.89,-27.03,0,*7B
1504774883.64,60003,15.63,73396.5,5.69,-25.45,-27.89,0,*70
1504774884.92,60004,15.63,73398.3,5.69,-25.97,-28.59,0,*7A
1504774886.16,60005,15.63,73396.8,5.67,-26.93,-29.73,0,*7B
1504774887.37,60006,15.56,73396.5,5.71,-26.55,-28.97,0,*7E
1504774888.62,60007,15.63,73400.0,5.73,-26.93,-28.85,0,*74
1504774889.84,60008,15.56,73396.3,5.75,-27.55,-29.39,0,*70
1504774891.06,60009,15.63,73398.0,5.77,-28.53,-30.23,0,*79
1504774892.35,60010,15.63,73398.5,5.77,-29.39,-30.77,0,*7D
1504774893.59,60011,15.56,73394.0,5.77,-29.17,-30.27,0,*75
1504774894.86,60012,15.63,73394.5,5.81,-28.63,-29.51,0,*74
1504774896.1,60013,15.63,73394.8,5.81,-28.31,-29.17,0,*70
1504774897.34,60014,15.63,73392.5,5.81,-28.15,-29.13,0,*75
1504774898.58,60015,15.56,73386.0,5.85,-27.23,-28.53,0,*7F
1504774899.86,60016,15.63,73386.3,5.85,-25.71,-27.35,0,*76
1504774901.09,60017,15.63,73384.8,5.91,-26.77,-27.07,0,*76
1504774902.32,60018,15.56,73380.3,5.91,-27.39,-27.77,0,*75
1504774903.58,60019,15.63,73384.5,5.91,-27.83,-28.09,0,*73
1504774904.78,60020,15.63,73386.3,5.95,-27.71,-27.93,0,*7C
1504774905.99,60021,15.63,73384.3,5.95,-27.55,-27.71,0,*77
1504774907.25,60022,15.56,73380.3,5.97,-27.61,-27.51,0,*73
1504774908.46,60023,15.56,73382.0,5.99,-26.87,-26.87,0,*7F
1504774909.71,60024,15.63,73384.8,6.01,-26.29,-26.61,0,*76
1504774910.92,60025,15.63,73386.3,6.03,-27.67,-27.51,0,*7C
1504774912.16,60026,15.56,73384.8,6.03,-27.67,-26.97,0,*74
1504774913.4,60027,15.63,73388.3,6.03,-26.97,-26.65,0,*76
1504774914.66,60028,15.63,73392.3,6.05,-27.07,-27.61,0,*72
1504774915.9,60029,15.56,73394.5,6.07,-27.03,-28.05,0,*78
1504774917.14,60030,15.63,73396.8,6.07,-28.85,-30.95,0,*71
1504774918.35,60031,15.56,73398.8,6.07,-28.31,-31.29,0,*79
1504774919.57,60032,15.56,73400.5,6.07,-29.57,-33.15,0,*76
1504774920.82,60033,15.63,73402.8,6.05,-31.33,-34.95,0,*71
1504774922.08,60034,15.56,73396.8,6.01,-29.61,-32.63,0,*73
1504774923.32,60035,15.63,73396.0,5.99,-30.17,-32.69,0,*73
1504774924.57,60036,15.63,73396.5,5.97,-30.45,-32.29,0,*7D
1504774925.77,60037,15.63,73400.5,5.99,-30.45,-32.13,0,*7B
1504774927.0,60038,15.56,73400.0,5.95,-30.83,-32.45,0,*71
1504774928.26,60039,15.63,73402.0,5.95,-30.77,-32.63,0,*7F
1504774929.52,60040,15.63,73402.0,5.93,-30.39,-32.51,0,*7C
1504774930.8,60041,15.63,73406.3,5.93,-30.51,-33.27,0,*73
1504774932.06,60042,15.63,73406.5,5.91,-31.39,-33.73,0,*7C
1504774933.31,60043,15.63,73406.8,5.89,-30.73,-33.21,0,*7C
1504774934.59,60044,15.56,73402.5,5.89,-30.55,-32.75,0,*7F
1504774935.84,60045,15.63,73404.8,5.89,-29.89,-31.67,0,*77
1504774937.11,60046,15.63,73404.0,5.89,-29.35,-31.17,0,*74
1504774938.4,60047,15.63,73404.5,5.89,-29.35,-31.11,0,*73
1504774939.64,60048,15.63,73402.5,5.93,-29.67,-31.29,0,*7B
1504774940.91,60049,15.56,73402.0,5.93,-29.83,-31.39,0,*71
1504774942.15,60050,15.63,73404.5,5.93,-29.83,-31.29,0,*78
1504774943.4,60051,15.56,73402.0,5.93,-30.51,-32.13,0,*74
1504774944.65,60052,15.63,73406.3,5.93,-30.55,-32.13,0,*73
1504774945.94,60053,15.56,73398.5,5.93,-32.63,-34.65,0,*72
1504774947.19,60054,15.63,73400.3,5.93,-30.05,-31.79,0,*7F
1504774948.43,60055,15.63,73396.3,5.91,-29.13,-30.83,0,*77
1504774949.69,60056,15.63,73398.8,5.95,-29.73,-31.39,0,*76
1504774950.95,60057,15.63,73400.3,5.93,-30.23,-31.95,0,*7A
1504774952.19,60058,15.63,73402.5,5.95,-31.85,-33.55,0,*70
1504774953.4,60059,15.63,73404.5,5.95,-31.29,-33.03,0,*74
1504774954.68,60060,15.63,73406.5,5.93,-32.07,-33.89,0,*75
1504774955.92,60061,15.63,73406.8,5.93,-33.03,-35.01,0,*77
1504774957.2,60062,15.63,73402.3,5.89,-31.95,-33.31,0,*77
1504774958.44,60063,15.63,73402.0,5.91,-30.67,-32.19,0,*78
1504774959.69,60064,15.63,73400.3,5.91,-30.05,-31.57,0,*72
1504774960.95,60065,15.63,73400.8,5.91,-31.39,-32.79,0,*72
1504774962.16,60066,15.63,73402.5,5.91,-31.79,-33.03,0,*79
1504774963.44,60067,15.63,73400.0,5.93,-30.73,-32.29,0,*78
1504774964.73,60068,15.63,73398.8,5.93,-31.23,-32.63,0,*7D
1504774965.99,60069,15.63,73396.5,5.91,-30.95,-32.45,0,*76
1504774967.25,60070,15.63,73396.0,5.91,-31.91,-33.27,0,*7E
1504774968.48,60071,15.63,73396.3,5.89,-31.29,-32.69,0,*7E
1504774969.74,60072,15.63,73398.8,5.91,-30.89,-32.29,0,*7B
1504774970.97,60073,15.63,73392.8,5.93,-29.79,-31.05,0,*72
1504774972.18,60074,15.63,73398.5,5.95,-30.11,-31.67,0,*71
1504774973.38,60075,15.63,73392.5,5.95,-31.05,-32.57,0,*74
1504774974.61,60076,15.63,73392.0,5.95,-30.27,-31.85,0,*7A
1504774975.87,60077,15.63,73392.0,5.93,-28.97,-30.55,0,*73
1504774977.11,60078,15.63,73388.8,5.95,-29.83,-31.39,0,*75
1504774978.37,60079,15.63,73392.5,5.99,-28.59,-30.05,0,*70
1504774979.58,60080,15.63,73394.5,5.99,-28.53,-30.11,0,*79
1504774980.86,60081,15.63,73398.3,6.01,-29.01,-30.51,0,*78
1504774982.11,60082,15.63,73396.0,6.03,-29.45,-30.73,0,*79
1504774983.34,60083,15.63,73400.8,6.03,-30.01,-31.45,0,*74
1504774984.56,60084,15.63,73400.8,6.03,-31.29,-32.69,0,*75
1504774985.82,60085,15.56,73398.5,6.03,-31.23,-32.63,0,*74
1504774987.06,60086,15.63,73402.8,6.03,-31.11,-32.69,0,*7C
1504774988.31,60087,15.56,73400.3,6.03,-32.29,-33.89,0,*7A
1504774989.56,60088,15.63,73406.8,6.01,-32.97,-34.71,0,*72
1504774990.82,60089,15.63,73406.0,6.01,-33.55,-35.35,0,*7D
1504774992.03,60090,15.63,73410.8,5.99,-33.83,-35.47,0,*79
1504774993.28,60091,15.63,73406.3,5.97,-33.89,-35.71,0,*79
1504774994.57,60092,15.63,73412.0,5.93,-33.43,-35.07,0,*79
1504774995.82,60093,15.63,73416.3,5.93,-32.63,-33.95,0,*76
1504774997.07,60094,15.63,73414.5,5.93,-33.03,-34.35,0,*7B
1504774998.32,60095,15.63,73412.3,5.89,-33.03,-34.31,0,*75
1504774999.56,60096,15.56,73410.3,5.89,-32.91,-34.19,0,*76
1504775000.81,60097,15.63,73414.3,5.85,-34.01,-35.01,0,*7C
1504775002.04,60098,15.63,73410.0,5.83,-33.89,-34.77,0,*72
1504775003.26,60099,15.56,73400.0,5.81,-34.41,-35.01,0,*72
1504775004.52,60100,15.63,73402.3,5.77,-35.41,-36.37,0,*7D
1504775005.77,60101,15.63,73398.5,5.75,-34.19,-36.25,0,*71
1504775006.99,60102,15.63,73396.8,5.73,-35.01,-36.85,0,*76
1504775008.21,60103,15.63,73384.3,5.71,-32.79,-33.95,0,*79
1504775009.42,60104,15.63,73386.0,5.71,-31.05,-32.79,0,*75
1504775010.67,60105,15.63,73386.5,5.71,-33.31,-35.07,0,*7F
1504775011.9,60106,15.63,73382.3,5.71,-32.29,-33.77,0,*75
1504775013.11,60107,15.63,73388.3,5.71,-30.51,-31.79,0,*75
1504775014.36,60108,15.63,73390.8,5.71,-29.17,-30.51,0,*7B
1504775015.6,60109,15.63,73392.0,5.73,-29.73,-31.01,0,*7E
1504775016.82,60110,15.63,73394.3,5.77,-30.67,-32.01,0,*7C
1504775018.07,60111,15.63,73398.0,5.75,-31.91,-33.31,0,*75
1504775019.31,60112,15.63,73396.0,5.77,-32.29,-33.67,0,*77
1504775020.56,60113,15.63,73394.8,5.77,-31.29,-32.75,0,*77
1504775021.79,60114,15.63,73388.5,5.77,-30.39,-31.67,0,*70
1504775023.04,60115,15.63,73396.5,5.77,-30.27,-31.51,0,*7B
1504775024.26,60116,15.63,73394.5,5.79,-30.89,-32.23,0,*74
1504775025.5,60117,15.63,73396.3,5.81,-32.63,-33.95,0,*78
1504775026.75,60118,15.63,73394.5,5.79,-31.23,-32.63,0,*7F
1504775027.99,60119,15.63,73392.8,5.79,-30.89,-32.29,0,*71
1504775029.22,60120,15.63,73394.3,5.79,-31.45,-32.85,0,*7C
1504775030.44,60121,15.63,73396.3,5.77,-32.01,-33.37,0,*78
1504775031.69,60122,15.63,73394.0,5.79,-31.91,-33.31,0,*79
1504775032.91,60123,15.63,73396.3,5.79,-31.45,-32.97,0,*7C
1504775034.13,60124,15.63,73396.3,5.79,-32.07,-33.55,0,*71
1504775035.38,60125,15.63,73398.8,5.77,-31.79,-33.09,0,*7D
1504775036.63,60126,15.63,73398.8,5.77,-31.45,-32.85,0,*74
1504775037.83,60127,15.63,73396.3,5.79,-31.45,-32.69,0,*79
1504775039.09,60128,15.63,73402.3,5.77,-31.45,-32.75,0,*75
1504775040.34,60129,15.63,73396.3,5.77,-31.11,-32.39,0,*7D
1504775041.56,60130,15.63,73396.8,5.79,-30.05,-31.45,0,*77
1504775042.83,60131,15.63,73398.8,5.81,-29.17,-30.51,0,*7E
1504775044.08,60132,15.63,73400.5,5.83,-30.17,-31.39,0,*78
1504775045.32,60133,15.63,73402.8,5.83,-29.61,-30.77,0,*7B
1504775046.57,60134,15.63,73400.8,5.85,-30.11,-31.23,0,*75
1504775047.78,60135,15.63,73404.0,5.85,-31.33,-32.01,0,*76
1504775049.02,60136,15.63,73400.5,5.85,-31.85,-31.67,0,*7B
1504775050.21,60137,15.63,73402.0,5.83,-31.01,-29.23,0,*79
1504775051.46,60138,15.63,73398.5,5.85,-29.39,-24.61,0,*79
1504775052.73,60139,15.63,73400.8,5.85,-27.35,-20.79,0,*77
1504775053.96,60140,15.63,73402.8,5.89,-23.09,-19.75,0,*78
1504775055.16,60141,15.63,73406.8,5.83,-21.47,-20.59,0,*7F
1504775056.39,60142,15.63,73408.0,5.83,-19.85,-22.63,0,*72
1504775057.61,60143,15.63,73400.8,5.83,-19.85,-23.43,0,*70
1504775058.82,60144,15.63,73398.3,5.83,-20.15,-21.09,0,*78
1504775060.06,60145,15.63,73396.3,5.85,-20.29,-19.65,0,*71
1504775061.28,60146,15.63,73400.5,5.81,-18.99,-19.99,0,*75
1504775062.5,60147,15.63,73396.0,5.81,-19.13,-18.99,0,*76
1504775063.74,60148,15.63,73396.0,5.77,-16.03,-18.93,0,*74
1504775064.94,60149,15.63,73398.8,5.75,-17.83,-26.23,0,*78
1504775066.15,60150,15.63,73388.5,5.71,-26.55,-36.19,0,*75
1504775067.42,60151,15.63,73400.5,5.61,-28.59,-37.93,0,*74
1504775068.64,60152,15.63,73396.5,5.53,-30.17,-37.75,0,*7D
1504775069.83,60153,15.63,73398.3,5.49,-27.77,-33.95,0,*7D
1504775071.08,60154,15.63,73398.0,5.49,-30.01,-35.53,0,*71
1504775072.27,60155,15.63,73404.5,5.45,-30.45,-34.59,0,*77
1504775073.47,60156,15.63,73404.0,5.45,-30.11,-33.37,0,*7A
1504775074.69,60157,15.63,73404.8,5.45,-31.57,-33.95,0,*70
1504775075.93,60158,15.63,73406.3,5.45,-32.79,-34.83,0,*70
1504775077.15,60159,15.63,73406.8,5.49,-31.51,-33.21,0,*7B
1504775078.35,60160,15.63,73404.5,5.45,-31.01,-32.39,0,*70
1504775079.59,60161,15.63,73406.3,5.49,-30.51,-31.91,0,*78
1504775080.8,60162,15.63,73408.3,5.49,-29.45,-30.67,0,*7E
1504775082.02,60163,15.63,73418.5,5.59,-28.31,-29.51,0,*71
1504775083.25,60164,15.63,73418.8,5.59,-30.83,-32.29,0,*73
1504775084.47,60165,15.63,73416.5,5.59,-32.63,-34.07,0,*74
1504775085.7,60166,15.63,73412.8,5.61,-33.27,-34.41,0,*7F
1504775086.89,60167,15.63,73406.0,5.59,-33.21,-34.41,0,*73
1504775088.12,60168,15.63,73404.3,5.57,-32.39,-33.67,0,*79
1504775089.34,60169,15.63,73398.3,5.57,-33.55,-34.89,0,*74
1504775090.6,60170,15.63,73406.0,5.57,-34.31,-35.89,0,*78
1504775091.85,60171,15.63,73394.8,5.57,-35.07,-36.67,0,*7E
1504775093.04,60172,15.63,73396.3,5.49,-35.77,-37.45,0,*74
1504775094.27,60173,15.63,73378.0,5.45,-36.25,-37.87,0,*73
1504775095.5,60174,15.63,73368.5,5.41,-36.67,-38.29,0,*7D
1504775096.72,60175,15.63,73378.0,5.41,-35.17,-36.79,0,*73
1504775097.93,60176,15.63,73382.5,5.37,-35.01,-36.55,0,*78
1504775099.15,60177,15.63,73388.5,5.33,-34.89,-36.37,0,*78
1504775100.37,60178,15.63,73398.8,5.33,-35.29,-36.91,0,*70
1504775101.62,60179,15.63,73400.3,5.33,-33.73,-35.23,0,*72
1504775102.85,60180,15.63,73402.5,5.29,-33.67,-35.07,0,*7C
1504775104.04,60181,15.63,73406.0,5.29,-32.23,-33.67,0,*7C
1504775105.33,60182,15.63,73414.3,5.31,-29.51,-30.95,0,*77
1504775106.53,60183,15.63,73416.0,5.33,-28.97,-30.33,0,*73
1504775107.81,60184,15.63,73416.0,5.35,-28.43,-30.17,0,*7D
1504775109.03,60185,15.63,73426.5,5.41,-26.55,-28.53,0,*7F
1504775110.25,60186,15.63,73426.8,5.43,-26.45,-28.69,0,*76
1504775111.45,60187,15.63,73428.8,5.53,-28.85,-31.29,0,*78
1504775112.7,60188,15.63,73428.0,5.51,-29.23,-31.85,0,*7E
1504775113.95,60189,15.63,73422.3,5.53,-28.21,-30.55,0,*72
1504775115.17,60190,15.63,73422.0,5.53,-28.63,-31.05,0,*78
1504775116.42,60191,15.63,73420.8,5.59,-28.25,-30.51,0,*71
1504775117.65,60192,15.63,73418.3,5.59,-28.43,-30.27,0,*73
1504775118.92,60193,15.63,73416.0,5.61,-28.25,-30.05,0,*79
1504775120.17,60194,15.63,73418.5,5.63,-28.25,-29.89,0,*70
1504775121.42,60195,15.63,73416.0,5.69,-27.29,-28.79,0,*76
1504775122.64,60196,15.63,73418.0,5.71,-28.25,-29.67,0,*71
1504775123.85,60197,15.63,73414.3,5.73,-27.93,-29.23,0,*70
1504775125.09,60198,15.63,73416.3,5.73,-28.75,-29.95,0,*75
1504775126.36,60199,15.63,73410.5,5.77,-28.47,-29.51,0,*79
1504775127.61,60200,15.63,73414.3,5.77,-29.17,-30.27,0,*77
1504775128.85,60201,15.63,73408.5,5.81,-28.59,-29.79,0,*77
1504775130.09,60202,15.63,73408.5,5.81,-28.59,-29.45,0,*7B
1504775131.34,60203,15.63,73410.3,5.83,-27.35,-28.25,0,*7A
1504775132.61,60204,15.63,73404.0,5.89,-27.83,-28.75,0,*7F
1504775133.84,60205,15.63,73404.8,5.91,-27.67,-28.43,0,*78
1504775135.11,60206,15.63,73402.5,5.93,-29.79,-30.73,0,*72
1504775136.4,60207,15.63,73408.5,5.93,-30.17,-31.11,0,*76
1504775137.66,60208,15.63,73406.8,5.93,-29.13,-29.83,0,*77
1504775138.92,60209,15.63,73410.0,5.97,-28.79,-29.57,0,*76
1504775140.15,60210,15.63,73408.3,5.97,-29.61,-30.27,0,*79
1504775141.39,60211,15.63,73410.8,5.97,-29.45,-30.27,0,*7E
1504775142.68,60212,15.63,73406.8,5.97,-30.17,-30.89,0,*76
1504775143.89,60213,15.63,73408.0,5.99,-29.79,-30.45,0,*79
1504775145.1,60214,15.63,73408.8,5.99,-29.57,-30.27,0,*76
1504775146.39,60215,15.63,73404.3,6.01,-29.01,-29.51,0,*7F
1504775147.67,60216,15.63,73404.8,6.01,-27.99,-28.43,0,*71
1504775148.91,60217,15.63,73400.3,6.07,-27.67,-28.21,0,*73
1504775150.17,60218,15.63,73400.8,6.07,-27.39,-27.83,0,*70
1504775151.41,60219,15.63,73400.3,6.13,-28.85,-29.29,0,*72
1504775152.66,60220,15.63,73400.8,6.13,-28.97,-29.29,0,*7B
1504775153.92,60221,15.63,73400.0,6.13,-28.25,-28.69,0,*76
1504775155.2,60222,15.63,73400.5,6.17,-28.05,-28.59,0,*70
1504775156.49,60223,15.63,73400.5,6.17,-28.25,-28.59,0,*73
1504775157.72,60224,15.63,73400.8,6.19,-29.01,-29.23,0,*71
1504775158.97,60225,15.63,73400.8,6.21,-29.39,-29.73,0,*75
1504775160.25,60226,15.63,73400.0,6.23,-29.01,-29.13,0,*79
1504775161.54,60227,15.63,73402.8,6.23,-29.51,-29.73,0,*7B
1504775162.77,60228,15.63,73402.3,6.25,-29.13,-28.97,0,*7F
1504775164.0,60229,15.63,73402.8,6.25,-29.13,-28.97,0,*7E
1504775165.23,60230,15.63,73402.3,6.25,-29.13,-28.69,0,*77
1504775166.49,60231,15.63,73404.5,6.27,-29.79,-29.51,0,*72
1504775167.72,60232,15.63,73400.5,6.27,-29.61,-28.97,0,*73
1504775168.95,60233,15.63,73402.8,6.29,-29.83,-28.91,0,*76
1504775170.21,60234,15.63,73404.0,6.27,-29.95,-28.75,0,*72
1504775171.46,60235,15.63,73404.3,6.29,-29.13,-27.61,0,*79
1504775172.7,60236,15.63,73410.8,6.29,-29.45,-28.05,0,*74
1504775173.93,60237,15.63,73406.5,6.31,-29.57,-27.51,0,*71
1504775175.19,60238,15.63,73410.5,6.31,-31.11,-28.53,0,*78
1504775176.45,60239,15.63,73408.8,6.31,-29.17,-26.07,0,*79
1504775177.72,60240,15.63,73410.8,6.31,-28.21,-24.67,0,*77
1504775179.01,60241,15.63,73410.3,6.35,-27.61,-23.49,0,*72
1504775180.21,60242,15.63,73408.5,6.37,-27.67,-22.87,0,*76
1504775181.44,60243,15.63,73408.3,6.39,-27.55,-22.07,0,*70
1504775182.72,60244,15.63,73408.0,6.43,-27.39,-21.23,0,*75
1504775183.95,60245,15.63,73410.8,6.43,-27.93,-21.17,0,*73
1504775185.18,60246,15.63,73412.8,6.45,-27.89,-20.49,0,*77
1504775186.45,60247,15.63,73408.8,6.47,-27.83,-19.81,0,*70
1504775187.68,60248,15.63,73404.3,6.49,-26.45,-18.35,0,*74
1504775188.91,60249,15.63,73408.3,6.49,-27.61,-19.07,0,*72
1504775190.19,60250,15.69,73414.3,6.47,-26.77,-18.01,0,*75
1504775191.39,60251,15.63,73404.8,6.49,-24.61,-15.67,0,*72
1504775192.67,60252,15.63,73408.5,6.51,-21.33,-12.57,0,*7E
1504775193.92,60253,15.63,73408.3,6.51,-19.99,-11.59,0,*79
1504775195.18,60254,15.63,73408.5,6.61,-18.35,-10.57,0,*75
1504775196.43,60255,15.63,73404.8,6.65,-18.31,-11.19,0,*7F
1504775197.68,60256,15.63,73412.3,6.65,-16.51,-10.49,0,*70
1504775198.9,60257,15.63,73412.8,6.69,-14.69,-9.97,0,*4F
1504775200.15,60258,15.63,73408.0,6.73,-14.61,-11.07,0,*73
1504775201.4,60259,15.63,73408.5,6.79,-13.29,-11.07,0,*73
1504775202.63,60260,15.63,73412.0,6.83,-13.47,-12.79,0,*7E
1504775203.87,60261,15.63,73412.5,6.87,-13.01,-13.43,0,*71
1504775205.15,60262,15.63,73414.0,6.87,-12.53,-14.05,0,*71
1504775206.42,60263,15.69,73410.3,6.91,-12.83,-15.29,0,*75
1504775207.65,60264,15.63,73408.5,6.91,-13.93,-16.41,0,*7F
1504775208.88,60265,15.63,73410.5,6.91,-14.11,-16.97,0,*78
1504775210.12,60266,15.63,73412.8,6.95,-15.25,-18.89,0,*78
1504775211.35,60267,15.63,73410.3,6.93,-18.99,-23.19,0,*74
1504775212.59,60268,15.63,73408.3,6.89,-19.17,-23.23,0,*7E
1504775213.84,60269,15.63,73410.0,6.85,-19.57,-24.11,0,*71
1504775215.04,60270,15.63,73410.3,6.83,-20.25,-24.97,0,*7E
1504775216.27,60271,15.69,73412.8,6.81,-20.25,-25.49,0,*7F
1504775217.5,60272,15.69,73408.3,6.79,-21.53,-26.39,0,*7F
1504775218.75,60273,15.63,73408.0,6.73,-22.17,-25.87,0,*71
1504775219.98,60274,15.63,73410.3,6.71,-22.37,-24.67,0,*79
1504775221.21,60275,15.69,73412.3,6.73,-22.37,-22.97,0,*73
1504775222.43,60276,15.63,73410.8,6.73,-22.97,-22.37,0,*70
1504775223.71,60277,15.69,73414.3,6.73,-23.49,-21.67,0,*75
1504775224.94,60278,15.63,73414.5,6.71,-22.03,-20.49,0,*7A
1504775226.2,60279,15.63,73418.5,6.73,-20.43,-19.65,0,*7B
1504775227.42,60280,15.63,73418.5,6.73,-18.25,-18.17,0,*72
1504775228.67,60281,15.63,73416.0,6.73,-18.17,-20.79,0,*71
1504775229.9,60282,15.69,73416.5,6.71,-20.63,-24.83,0,*79
1504775231.15,60283,15.63,73416.0,6.67,-21.27,-26.55,0,*77
1504775232.43,60284,15.69,73416.5,6.65,-21.03,-28.09,0,*73
1504775233.69,60285,15.63,73412.8,6.61,-23.85,-32.51,0,*7C
1504775234.97,60286,15.63,73414.0,6.53,-24.71,-32.29,0,*7D
1504775236.22,60287,15.63,73412.5,6.51,-25.91,-32.45,0,*7B
1504775237.44,60288,15.63,73414.3,6.49,-28.59,-34.25,0,*74
1504775238.7,60289,15.69,73412.5,6.47,-29.39,-34.13,0,*79
1504775239.95,60290,15.69,73408.0,6.45,-27.99,-31.95,0,*7C
1504775241.22,60291,15.63,73404.3,6.47,-25.97,-29.17,0,*70
1504775242.5,60292,15.69,73408.3,6.47,-26.81,-30.01,0,*78
1504775243.73,60293,15.69,73410.5,6.51,-28.37,-31.33,0,*7D
1504775245.01,60294,15.69,73408.3,6.51,-29.73,-32.29,0,*73
1504775246.24,60295,15.63,73406.0,6.49,-28.79,-31.01,0,*79
1504775247.5,60296,15.63,73402.3,6.51,-27.19,-29.13,0,*70
1504775248.78,60297,15.69,73400.5,6.51,-30.17,-32.29,0,*7A
1504775250.06,60298,15.63,73402.0,6.53,-31.57,-33.31,0,*7A
1504775251.34,60299,15.69,73400.5,6.51,-31.73,-33.73,0,*79
1504775252.54,60300,15.69,73402.0,6.49,-30.67,-32.13,0,*72
1504775253.77,60301,15.63,73392.3,6.49,-31.61,-33.15,0,*73
1504775255.0,60302,15.69,73390.0,6.49,-31.79,-33.31,0,*7F
1504775256.22,60303,15.69,73388.3,6.49,-33.55,-35.23,0,*77
1504775257.45,60304,15.69,73388.8,6.45,-33.49,-35.47,0,*73
1504775258.68,60305,15.69,73386.0,6.41,-32.01,-33.49,0,*73
1504775259.91,60306,15.63,73388.3,6.41,-31.29,-32.75,0,*77
1504775261.12,60307,15.69,73396.0,6.41,-29.95,-31.67,0,*78
1504775262.37,60308,15.69,73394.3,6.41,-30.17,-32.07,0,*70
1504775263.63,60309,15.63,73390.5,6.43,-31.17,-32.79,0,*7B
1504775264.87,60310,15.69,73392.5,6.41,-28.53,-30.77,0,*75
1504775266.13,60311,15.69,73394.3,6.41,-31.39,-32.75,0,*70
1504775267.35,60312,15.69,73396.0,6.41,-28.21,-29.07,0,*7D
1504775268.57,60313,15.69,73396.3,6.43,-27.71,-32.01,0,*78
1504775269.83,60314,15.69,73402.3,6.43,-30.11,-32.45,0,*7F
1504775271.07,60315,15.63,73394.3,6.39,-32.07,-34.41,0,*74
1504775272.3,60316,15.69,73398.8,6.39,-27.77,-31.79,0,*7A
1504775273.58,60317,15.69,73400.0,6.39,-28.47,-31.23,0,*78
1504775274.81,60318,15.69,73400.3,6.39,-29.07,-31.01,0,*72
1504775276.07,60319,15.69,73398.8,6.39,-27.55,-30.17,0,*7C
1504775277.27,60320,15.69,73404.5,6.41,-28.85,-29.95,0,*79
1504775278.51,60321,15.69,73406.3,6.41,-28.59,-30.67,0,*7C
1504775279.76,60322,15.69,73400.0,6.43,-26.23,-28.09,0,*7F
1504775280.98,60323,15.69,73404.8,6.43,-23.89,-27.07,0,*7A
1504775282.19,60324,15.69,73404.5,6.45,-28.53,-31.29,0,*7C
1504775283.47,60325,15.69,73400.3,6.47,-29.35,-30.55,0,*74
1504775284.7,60326,15.69,73406.5,6.49,-27.93,-29.17,0,*75
1504775285.9,60327,15.69,73406.8,6.49,-31.17,-32.35,0,*75
1504775287.17,60328,15.69,73404.5,6.51,-31.91,-33.09,0,*73
1504775288.41,60329,15.69,73404.0,6.49,-32.07,-33.15,0,*7A
1504775289.64,60330,15.69,73404.5,6.49,-27.77,-28.63,0,*7A
1504775290.86,60331,15.69,73402.3,6.51,-25.19,-28.53,0,*7B
1504775292.12,60332,15.69,73402.0,6.51,-24.05,-28.21,0,*71
1504775293.38,60333,15.69,73400.8,6.53,-25.75,-30.83,0,*75
1504775294.61,60334,15.69,73404.0,6.53,-26.49,-32.01,0,*76
1504775295.86,60335,15.69,73412.3,6.53,-25.55,-31.01,0,*7A
1504775297.09,60336,15.69,73412.3,6.53,-26.07,-31.33,0,*7C
1504775298.34,60337,15.69,73414.5,6.51,-28.59,-32.57,0,*7B
1504775299.59,60338,15.69,73418.5,6.51,-30.27,-33.89,0,*76
1504775300.88,60339,15.69,73418.5,6.51,-28.59,-31.23,0,*75
1504775302.16,60340,15.69,73418.5,6.51,-29.13,-31.23,0,*74
1504775303.45,60341,15.69,73416.5,6.51,-29.89,-31.51,0,*73